Location: ?????? ??????
(44.3742°N, 135.2221°E)
Time: 05:41:11
(UTC+00:00)

Resurs 1-4 Rocket - Visible Passes

Search period start: 06 June 2026 00:00
Search period end: 16 June 2026 00:00
Orbit: 797 x 813 km, 98.8° (Epoch: 5 June)

Date Brightness Start Highest point End Pass type
(mag) Time Alt. Az. Time Alt. Az. Time Alt. Az.
6 Jun 3.0 17:18:39 10° NNE 17:23:38 43° E 17:28:33 10° S visible
7 Jun 3.8 16:53:54 10° NE 16:58:16 26° E 17:02:36 10° SSE visible
7 Jun 2.7 18:33:14 10° N 18:38:11 43° WNW 18:43:06 10° SW visible
8 Jun 4.4 16:29:43 10° NE 16:32:47 16° E 16:35:51 10° SE visible
8 Jun 2.1 18:07:50 10° N 18:13:04 71° WNW 18:18:17 10° SSW visible
9 Jun 2.3 17:42:37 10° NNE 17:47:53 70° ESE 17:53:04 10° S visible
10 Jun 3.1 17:17:37 10° NNE 17:22:35 42° E 17:27:32 10° S visible
11 Jun 3.8 16:52:53 10° NE 16:57:12 25° E 17:01:30 10° SSE visible
11 Jun 2.6 18:32:10 10° N 18:37:08 44° WNW 18:42:05 10° SW visible
12 Jun 4.4 16:28:45 10° NE 16:31:43 15° E 16:34:41 10° SE visible
12 Jun 2.1 18:06:46 10° N 18:12:01 73° WNW 18:17:15 10° SSW visible
13 Jun 2.3 17:41:34 10° NNE 17:46:49 68° ESE 17:52:03 10° S visible
14 Jun 3.1 17:16:35 10° NNE 17:21:32 41° E 17:26:27 10° SSE visible
15 Jun 3.9 16:51:53 10° NE 16:56:09 25° E 17:00:23 10° SSE visible
15 Jun 2.6 18:31:06 10° N 18:36:05 46° WNW 18:41:04 10° SW visible
